Vinton, IA

6:34 PM CDT on April 24, 2018 (GMT -0500)
Vinton-Veterans Memorial

Weather History for KVTI - January, 2013

Change the Weather History Date:

Monday, January 28, 2013

  Actual Average Record
Temperature  
Mean Temperature 36 °F -  
Max Temperature 43 °F 26 °F 48 °F (2008)
Min Temperature 30 °F 9 °F -26 °F (1963)
Degree Days  
Heating Degree Days 28    
Moisture  
Dew Point 33 °F    
Average Humidity 95    
Maximum Humidity 96    
Minimum Humidity 94    
Precipitation  
Precipitation 0.08 in - - ()
Sea Level Pressure  
Sea Level Pressure 29.83 in    
Wind  
Wind Speed 4 mph (ESE)    
Max Wind Speed 15 mph    
Max Gust Speed 37 mph    
Visibility 1 miles    
Events Fog , Rain    
Averages and records for this station are not official NWS values.
T = Trace of Precipitation, MM = Missing Value Source: NWS Daily Summary

Daily Weather History Graph

Daily Weather History Graph

Search for Another Location

Airport or City:

Astronomy

Jan. 28, 2013 Rise Set
Actual Time 7:24 AM CST 5:17 PM CST
Civil Twilight 6:55 AM CST 5:47 PM CST
Nautical Twilight 6:21 AM CST 6:21 PM CST
Astronomical Twilight 5:48 AM CST 6:54 PM CST
Moon 7:16 PM CST (1/28) 7:48 AM CST (1/28)
Length of Visible Light 10h 52m
Length of Day
9h 52m
Full, 98% of the Moon is Illuminated
Jan 28
Full
Feb 3
Last Quarter
Feb 10
New
Feb 17
First Quarter
Feb 25
Full

Hourly Weather History & Observations

Time (CST) Temp. Windchill Dew Point Humidity Pressure Visibility Wind Dir Wind Speed Gust Speed Precip Events Conditions
12:15 AM 34.9 °F - 33.4 °F 94% 29.78 in 0.5 mi Calm Calm - 0.01 in Rain Heavy Rain
12:35 AM 34.9 °F - 33.4 °F 94% 29.78 in 0.5 mi Calm Calm - 0.02 in   Drizzle
12:55 AM 34.9 °F - 33.4 °F 94% 29.78 in 0.5 mi Calm Calm - 0.03 in   Drizzle
1:15 AM 34.9 °F 32.0 °F 33.4 °F 94% 29.79 in 0.5 mi West 3.5 mph - N/A   Drizzle
1:35 AM 34.2 °F 31.2 °F 32.7 °F 94% 29.79 in 0.5 mi NW 3.5 mph - N/A Fog Fog
1:55 AM 33.3 °F 30.2 °F 32.0 °F 95% 29.79 in 0.2 mi NW 3.5 mph - N/A Fog Fog
2:15 AM 32.4 °F - 31.5 °F 96% 29.79 in 0.5 mi Calm Calm - N/A Fog Fog
2:35 AM 32.4 °F - 31.1 °F 95% 29.80 in 0.5 mi Calm Calm - N/A Fog Fog
2:55 AM 32.4 °F - 31.1 °F 95% 29.80 in 0.8 mi Calm Calm - N/A   Overcast
3:15 AM 32.4 °F - 31.1 °F 95% 29.81 in 0.8 mi Calm Calm - N/A   Overcast
3:35 AM 32.4 °F 29.1 °F 31.1 °F 95% 29.81 in 1.0 mi WNW 3.5 mph - N/A   Overcast
3:55 AM 32.4 °F 29.1 °F 31.1 °F 95% 29.82 in 0.8 mi WNW 3.5 mph - N/A   Overcast
4:15 AM 32.4 °F 27.9 °F 31.1 °F 95% 29.83 in 1.5 mi WNW 4.6 mph - N/A   Overcast
4:35 AM 32.4 °F 26.9 °F 31.1 °F 95% 29.84 in 0.8 mi NW 5.8 mph - N/A   Overcast
4:55 AM 32.4 °F 23.5 °F 31.1 °F 95% 29.85 in 1.0 mi NNW 11.5 mph - N/A   Overcast
5:15 AM 32.4 °F 25.3 °F 31.1 °F 95% 29.86 in 0.8 mi WNW 8.1 mph - N/A   Overcast
5:35 AM 32.4 °F 26.9 °F 31.1 °F 95% 29.87 in 0.5 mi NNW 5.8 mph - N/A Fog Fog
5:55 AM 32.4 °F 29.1 °F 31.1 °F 95% 29.88 in 0.5 mi NW 3.5 mph - N/A Fog Fog
6:15 AM 32.4 °F 29.1 °F 31.1 °F 95% 29.89 in 0.5 mi NW 3.5 mph - N/A Fog Fog
6:35 AM 32.4 °F 27.9 °F 31.1 °F 95% 29.90 in 0.5 mi NNW 4.6 mph - N/A Fog Fog
6:55 AM 32.4 °F 26.9 °F 31.1 °F 95% 29.90 in 0.8 mi North 5.8 mph - N/A   Overcast
7:15 AM 32.4 °F - 31.1 °F 95% 29.91 in 0.5 mi Calm Calm - N/A Fog Fog
7:35 AM 32.4 °F - 31.1 °F 95% 29.91 in 0.2 mi Calm Calm - N/A Fog Fog
7:55 AM 32.4 °F - 31.1 °F 95% 29.92 in 0.2 mi Calm Calm - N/A Fog Fog
8:15 AM 32.2 °F - 30.9 °F 95% 29.92 in 0.2 mi Calm Calm - N/A Fog Fog
8:35 AM 30.6 °F - 29.3 °F 95% 29.93 in 0.2 mi Calm Calm - N/A Fog Light Freezing Fog
9:15 AM 32.4 °F 29.1 °F 31.5 °F 96% 29.93 in 0.2 mi SW 3.5 mph - N/A Fog Fog
9:35 AM 32.4 °F - 31.5 °F 96% 29.93 in 0.2 mi Calm Calm - N/A Fog Fog
9:55 AM 32.4 °F - 31.5 °F 96% 29.93 in 0.2 mi Calm Calm - N/A Fog Fog
10:15 AM 32.4 °F - 31.5 °F 96% 29.93 in 0.2 mi Calm Calm - N/A Fog Fog
10:35 AM 32.4 °F - 31.5 °F 96% 29.94 in 0.2 mi Calm Calm - N/A Fog Fog
10:55 AM 32.4 °F - 31.5 °F 96% 29.94 in 0.2 mi Calm Calm - N/A Fog Fog
11:15 AM 32.4 °F - 31.1 °F 95% 29.93 in 0.2 mi Calm Calm - N/A Fog Fog
11:35 AM 32.4 °F 27.9 °F 31.1 °F 95% 29.93 in 0.2 mi SE 4.6 mph - N/A Fog Fog
11:55 AM 32.4 °F 29.1 °F 31.1 °F 95% 29.92 in 0.2 mi NE 3.5 mph - N/A Fog Fog
12:35 PM 32.5 °F 27.1 °F 31.3 °F 95% 29.89 in 0.2 mi East 5.8 mph - N/A Fog Fog
12:55 PM 33.4 °F 29.1 °F 32.2 °F 95% 29.90 in 0.2 mi SE 4.6 mph - N/A Fog Fog
1:15 PM 33.3 °F 28.9 °F 32.0 °F 95% 29.89 in 0.2 mi East 4.6 mph - N/A Fog Fog
1:35 PM 33.8 °F 28.6 °F 32.2 °F 94% 29.89 in 0.2 mi SE 5.8 mph - N/A Fog Fog
1:55 PM 33.8 °F 27.7 °F 32.2 °F 94% 29.88 in 0.5 mi SE 6.9 mph - N/A Fog Fog
2:15 PM 33.8 °F 27.0 °F 32.2 °F 94% 29.89 in 0.5 mi South 8.1 mph - N/A Fog Fog
2:35 PM 34.9 °F 29.9 °F 33.4 °F 94% 29.87 in 0.2 mi East 5.8 mph - N/A Fog Fog
2:55 PM 34.9 °F 28.3 °F 33.4 °F 94% 29.87 in 0.2 mi ESE 8.1 mph - N/A Fog Fog
3:15 PM 34.9 °F 27.7 °F 33.4 °F 94% 29.87 in 0.2 mi ESE 9.2 mph - N/A Fog Fog
3:35 PM 34.9 °F 27.7 °F 33.4 °F 94% 29.86 in 0.2 mi East 9.2 mph - N/A Fog Fog
3:55 PM 34.9 °F 28.3 °F 33.4 °F 94% 29.86 in 0.2 mi ESE 8.1 mph - N/A Fog Fog
4:15 PM 34.9 °F 28.3 °F 33.4 °F 94% 29.85 in 0.2 mi East 8.1 mph - N/A Fog Fog
4:35 PM 34.9 °F 28.3 °F 33.4 °F 94% 29.84 in 0.2 mi ESE 8.1 mph - N/A Fog Fog
4:55 PM 34.9 °F 29.0 °F 33.4 °F 94% 29.83 in 0.2 mi East 6.9 mph - N/A Fog Fog
5:15 PM 34.9 °F 27.7 °F 33.4 °F 94% 29.84 in 0.8 mi SE 9.2 mph - N/A   Overcast
5:35 PM 34.9 °F 28.3 °F 33.4 °F 94% 29.84 in 1.2 mi SE 8.1 mph - N/A   Overcast
5:55 PM 34.9 °F 29.0 °F 33.4 °F 94% 29.83 in 4.0 mi ESE 6.9 mph - N/A   Overcast
6:15 PM 34.9 °F 27.7 °F 33.4 °F 94% 29.82 in 2.5 mi ESE 9.2 mph - N/A   Overcast
6:35 PM 34.9 °F 27.7 °F 33.4 °F 94% 29.81 in 3.0 mi ESE 9.2 mph - N/A   Overcast
6:55 PM 34.9 °F 28.3 °F 33.4 °F 94% 29.81 in 1.2 mi ESE 8.1 mph - N/A   Overcast
7:15 PM 34.9 °F 28.3 °F 33.4 °F 94% 29.80 in 0.5 mi ESE 8.1 mph - N/A Fog Fog
7:35 PM 35.6 °F 27.5 °F 34.2 °F 94% 29.79 in 0.5 mi ESE 11.5 mph - N/A Fog Fog
7:55 PM 37.4 °F 28.9 °F 36.1 °F 95% 29.77 in 0.5 mi ESE 13.8 mph - N/A Fog Fog
8:15 PM 37.4 °F 28.5 °F 36.1 °F 95% 29.76 in 0.2 mi ESE 15.0 mph - N/A Fog Fog
8:35 PM 37.4 °F 29.8 °F 36.1 °F 95% 29.76 in 0.2 mi ESE 11.5 mph - N/A Fog Fog
8:55 PM 37.4 °F 29.8 °F 36.1 °F 95% 29.74 in 0.2 mi ESE 11.5 mph - N/A Fog Fog
9:15 PM 37.4 °F 31.4 °F 36.1 °F 95% 29.71 in 0.5 mi ESE 8.1 mph - N/A Fog Fog
9:35 PM 37.4 °F 30.3 °F 36.1 °F 95% 29.68 in 0.5 mi SE 10.4 mph 17.3 mph N/A Rain Light Rain
9:55 PM 37.4 °F 32.8 °F 36.1 °F 95% 29.67 in 1.0 mi NE 5.8 mph - 0.01 in Rain Heavy Rain
10:15 PM 40.1 °F 36.9 °F 38.7 °F 95% 29.68 in 4.0 mi NNW 4.6 mph - 0.01 in Rain Light Rain
10:35 PM 40.3 °F 33.9 °F 38.8 °F 95% 29.71 in 5.0 mi West 10.4 mph 36.8 mph 0.01 in   Overcast
10:55 PM 43.9 °F 39.9 °F 42.4 °F 95% 29.68 in 4.0 mi SSE 6.9 mph - 0.03 in Rain Heavy Rain
11:15 PM 40.1 °F 32.7 °F 38.7 °F 95% 29.66 in 4.0 mi SE 12.7 mph - 0.01 in Rain Light Rain
11:35 PM 40.6 °F 33.8 °F 39.4 °F 95% 29.66 in 1.2 mi SE 11.5 mph - 0.01 in   Overcast
11:55 PM 38.8 °F 32.1 °F 37.6 °F 95% 29.64 in 0.5 mi SE 10.4 mph - 0.01 in Fog Fog